Airfield :
LOGIN :

Register | Disclaimer

   EN    FR    IT 

 










Legend :    VFR   Marginal VFR   IFR   Intensive IFR   Very Intensive IFR
Visi :
Ceiling :
>= 8 km
>= 3000ft
5 to 8 km
1000 to 3000 ft
1500m to 5 km
500 to 1000 ft
800 to 1500m
200 to 500 ft
< 800m
< 200 ft
Symbols :   Thunderstorms  Fog  Heavy snow  Heavy precipitations  Wind > 20 kt
SIGMETs :     Misc.  Thunderstorms  Icing  Turbulence  Mountain Waves  Volcanic Ashes






- Airport Elevation : 55 ft


EGNO - Warton Preston

CURRENT METAR :
  • 271320Z 27022KT 9999 SCT032 15/08 Q1006

EXPIRED METARs :
  • 271250Z 26020KT 9999 BKN030 15/10 Q1005
  • 271220Z 26019KT 9999 -SHRA SCT027 14/09 Q1005
  • 271150Z 26020KT 9999 FEW010 SCT028 15/09 Q1004
  • 271120Z 27022G32KT 9999 FEW010 SCT028 15/10 Q1004
  • 271050Z 27018G28KT 9999 FEW010 BKN028 15/10 Q1003

TAF TAF EGNO
Valid from the 27 at 12:00 until the 27 at 18:00 UTC


271102Z 2712/2718 28014KT 9999 SCT020
TEMPO 2712/2718 29017G27KT 7000 SHRA
PROB30
TEMPO 2712/2718 3000 +SHRA +TSRA BKN012
ATIS : +44 1772 856 060



MET'MAP, your aeronautical weather chart ! - Copyright ORBIFLY December 2007 - Disclaimer

ORBIFLY MET'MAP TEAM :

Programming & Development : Alexandra Zaïnal
Concept & original design : Baudouin d'Aumeries
Assistance for programming : Marc-Olivier Méhu
Technical & hardware support : Manuel Goepfert

Contact : metmap@orbifly.com




SOURCES & CREDITS :

   NOAA